Regional Weather Roundup
Issued by NWS

Home | Current Version | Previous Version | Text Only | Print | Product List | Glossary Off
Versions: 1 2 3 4 5 6 7 8 9 10 11 12 13 14 15 16 17 18 19 20 21 22 23 24 25 26 27 28 29 30 31 32 33 34 35 36 37 38 39 40 41 42 43 44 45 46 47 48 49 50

707
ASUS43 KOAX 271702
RWRNE

WEATHER ROUNDUP FOR NEBRASKA
NATIONAL WEATHER SERVICE OMAHA NE
1200 PM CDT WED JUL 27 2016

NOTES: SATELLITE DATA IS BEING USED TO AUGMENT CLOUD COVER ABOVE
       12000 FEET.
       "FAIR" INDICATES FEW OR NO CLOUDS BELOW 12,000 FEET WITH NO
       SIGNIFICANT WEATHER AND/OR OBSTRUCTIONS TO VISIBILITY.

  * THESE STATIONS DO NOT REPORT WEATHER SUCH AS RAIN...SNOW OR FOG.

NEZ001>004-019>022-054>056-271800-
NEBRASKA PANHANDLE

CITY           SKY/WX    TMP DP  RH WIND       PRES   REMARKS
SCOTTSBLUFF    SUNNY     75  60  59 VRB7      30.16S
ALLIANCE       MOSUNNY   76  60  57 N6        30.12F
CHADRON        CLOUDY    81  56  42 W7        30.08S
KIMBALL        SUNNY     75  60  58 CALM      30.21S
SIDNEY         SUNNY     77  58  51 S8        30.17F
$$

NEZ057>060-069>072-079>082-271800-
SOUTHWEST NEBRASKA

CITY           SKY/WX    TMP DP  RH WIND       PRES   REMARKS
NORTH PLATTE   CLOUDY    78  63  59 NW6       30.12F
IMPERIAL       SUNNY     79  61  53 CALM      30.13F
LEXINGTON      CLOUDY    79  67  66 NW7       30.11R
MCCOOK         CLOUDY    74  62  66 N13       30.13R
OGALLALA       MOSUNNY   78  59  52 NE13G18   30.14S
$$

NEZ005>010-023>029-035>040-094-271800-
NORTH CENTRAL NEBRASKA

CITY           SKY/WX    TMP DP  RH WIND       PRES   REMARKS
VALENTINE      CLOUDY    80  61  52 MISG      30.06F
AINSWORTH      MOSUNNY   78  63  59 CALM      30.09F
BROKEN BOW     SUNNY     75  66  73 N7        30.12S
O`NEILL        SUNNY     79  58  49 SW5       30.08S
ORD            SUNNY     78  63  59 N6        30.08F
THEDFORD       MOSUNNY   80  62  54 NW9       30.12F
$$

NEZ041-046>049-061>064-073>077-083>087-271800-
SOUTH CENTRAL NEBRASKA

CITY           SKY/WX    TMP DP  RH WIND       PRES   REMARKS
GRAND ISLAND   SUNNY     79  63  57 NE6       30.08R
AURORA         SUNNY     79  65  62 NE5       30.07S
HASTINGS       SUNNY     78  64  61 N5        30.09S
HEBRON         CLOUDY    79  64  60 NE8       30.06R
HOLDREGE       SUNNY     78  63  59 NE9       30.10R
KEARNEY *      SUNNY     79  18  10 NE8       30.11R
YORK           MOSUNNY   79  66  65 W7        30.05S
$$

NEZ011>018-030>034-042>045-271800-
NORTHEAST NEBRASKA

CITY           SKY/WX    TMP DP  RH WIND       PRES   REMARKS
NORFOLK        SUNNY     79  63  57 NW12      30.03S
ALBION         SUNNY     76  65  68 N6        30.07R
BLAIR          MOSUNNY   82  67  59 W8        30.00S
FREMONT        MOSUNNY   80  66  62 W5        30.01S
TEKAMAH        MOSUNNY   80  69  69 NE13      30.00R
WAYNE          SUNNY     81  68  63 N12       30.03R
$$

NEZ050>053-065>068-078-088>093-271800-
SOUTHEAST NEBRASKA

CITY           SKY/WX    TMP DP  RH WIND       PRES   REMARKS
LINCOLN        SUNNY     85  63  47 W9        30.01S
OMAHA EPPLEY   MOSUNNY   85  67  54 SW10      29.98S
BEATRICE       PTSUNNY   81  68  64 NW6       30.04S
FALLS CITY     MOSUNNY   85  73  67 N7        30.02S HX  91
NEBRASKA CITY  MOSUNNY   80  71  76 CALM      30.02F
PLATTSMOUTH    MOSUNNY   82  71  69 S8        30.01S
$$

NEZ044-045-051>053-067-271800-
OMAHA AREA

CITY           SKY/WX    TMP DP  RH WIND       PRES   REMARKS
OMAHA EPPLEY   MOSUNNY   85  67  54 SW10      29.98S
BLAIR          MOSUNNY   82  67  59 W8        30.00S
FREMONT        MOSUNNY   80  66  62 W5        30.01S
MILLARD        SUNNY     83  65  53 SW7       29.99R
OFFUTT AFB     SUNNY     84  70  63 S13       29.98F
PLATTSMOUTH    MOSUNNY   82  71  69 S8        30.01S
WAHOO          FAIR      82  66  58 NW7       30.01R
$$




USA.gov is the U.S. government's official web portal to all federal, state and local government web resources and services.